Year,Month,Day,Hour,Minute,Value (Times are PST for temperature in C)
2012,04,21,00,00,5.40
2012,04,21,00,01,5.40
2012,04,21,00,02,5.40
2012,04,21,00,03,5.40
2012,04,21,00,04,5.30
2012,04,21,00,05,5.30
2012,04,21,00,06,5.30
2012,04,21,00,07,5.30
2012,04,21,00,08,5.30
2012,04,21,00,09,5.30
2012,04,21,00,10,5.30
2012,04,21,00,11,5.20
2012,04,21,00,12,5.20
2012,04,21,00,13,5.20
2012,04,21,00,14,5.20
2012,04,21,00,15,5.20
2012,04,21,00,16,5.10
2012,04,21,00,17,5.10
2012,04,21,00,18,5.10
2012,04,21,00,19,5.10
2012,04,21,00,20,5.10
2012,04,21,00,21,5.10
2012,04,21,00,22,5.00
2012,04,21,00,23,5.00
2012,04,21,00,24,5.00
2012,04,21,00,25,5.00
2012,04,21,00,26,5.00
2012,04,21,00,27,4.90
2012,04,21,00,28,4.90
2012,04,21,00,29,4.90
2012,04,21,00,30,4.90
2012,04,21,00,31,4.90
2012,04,21,00,32,4.90
2012,04,21,00,33,4.90
2012,04,21,00,34,4.80
2012,04,21,00,35,4.80
2012,04,21,00,36,4.80
2012,04,21,00,37,4.80
2012,04,21,00,38,4.80
2012,04,21,00,39,4.80
2012,04,21,00,40,4.80
2012,04,21,00,41,4.80
2012,04,21,00,42,4.80
2012,04,21,00,43,4.80
2012,04,21,00,44,4.80
2012,04,21,00,45,4.80
2012,04,21,00,46,4.80
2012,04,21,00,47,4.80
2012,04,21,00,48,4.80
2012,04,21,00,49,4.80
2012,04,21,00,50,4.80
2012,04,21,00,51,4.80
2012,04,21,00,52,4.80
2012,04,21,00,53,4.80
2012,04,21,00,54,4.80
2012,04,21,00,55,4.80
2012,04,21,00,56,4.80
2012,04,21,00,57,4.80
2012,04,21,00,58,4.80
2012,04,21,00,59,4.80
2012,04,21,01,00,4.80
2012,04,21,01,01,4.80
2012,04,21,01,02,4.80
2012,04,21,01,03,4.80
2012,04,21,01,04,4.80
2012,04,21,01,05,4.90
2012,04,21,01,06,4.90
2012,04,21,01,07,4.90
2012,04,21,01,08,4.90
2012,04,21,01,09,4.90
2012,04,21,01,10,4.90
2012,04,21,01,11,4.80
2012,04,21,01,12,4.80
2012,04,21,01,13,4.80
2012,04,21,01,14,4.80
2012,04,21,01,15,4.80
2012,04,21,01,16,4.90
2012,04,21,01,17,4.90
2012,04,21,01,18,4.90
2012,04,21,01,19,4.90
2012,04,21,01,20,4.90
2012,04,21,01,21,4.90
2012,04,21,01,22,5.00
2012,04,21,01,23,5.00
2012,04,21,01,24,5.00
2012,04,21,01,25,5.00
2012,04,21,01,26,5.10
2012,04,21,01,27,5.10
2012,04,21,01,28,5.10
2012,04,21,01,29,5.10
2012,04,21,01,30,5.10
2012,04,21,01,31,5.10
2012,04,21,01,32,5.10
2012,04,21,01,33,5.10
2012,04,21,01,34,5.10
2012,04,21,01,35,5.10
2012,04,21,01,36,5.10
2012,04,21,01,37,5.10
2012,04,21,01,38,5.10
2012,04,21,01,39,5.20
2012,04,21,01,40,5.20
2012,04,21,01,41,5.20
2012,04,21,01,42,5.20
2012,04,21,01,43,5.20
2012,04,21,01,44,5.20
2012,04,21,01,45,5.20
2012,04,21,01,46,5.20
2012,04,21,01,47,5.20
2012,04,21,01,48,5.20
2012,04,21,01,49,5.20
2012,04,21,01,50,5.20
2012,04,21,01,51,5.20
2012,04,21,01,52,5.20
2012,04,21,01,53,5.20
2012,04,21,01,54,5.20
2012,04,21,01,55,5.10
2012,04,21,01,56,5.10
2012,04,21,01,57,5.10
2012,04,21,01,58,5.10
2012,04,21,01,59,5.10
2012,04,21,02,00,5.10
2012,04,21,02,01,5.10
2012,04,21,02,02,5.10
2012,04,21,02,03,5.10
2012,04,21,02,04,5.10
2012,04,21,02,05,5.10
2012,04,21,02,06,5.10
2012,04,21,02,07,5.10
2012,04,21,02,08,5.10
2012,04,21,02,09,5.10
2012,04,21,02,10,5.10
2012,04,21,02,11,5.10
2012,04,21,02,12,5.10
2012,04,21,02,13,5.10
2012,04,21,02,14,5.10
2012,04,21,02,15,5.10
2012,04,21,02,16,5.10
2012,04,21,02,17,5.10
2012,04,21,02,18,5.10
2012,04,21,02,19,5.00
2012,04,21,02,20,5.00
2012,04,21,02,21,5.00
2012,04,21,02,22,5.00
2012,04,21,02,23,5.00
2012,04,21,02,24,5.00
2012,04,21,02,25,5.00
2012,04,21,02,26,5.00
2012,04,21,02,27,5.00
2012,04,21,02,28,5.00
2012,04,21,02,29,5.00
2012,04,21,02,30,5.00
2012,04,21,02,31,5.00
2012,04,21,02,32,5.00
2012,04,21,02,33,5.10
2012,04,21,02,34,5.10
2012,04,21,02,35,5.00
2012,04,21,02,36,5.00
2012,04,21,02,37,5.00
2012,04,21,02,38,5.10
2012,04,21,02,39,5.10
2012,04,21,02,40,5.00
2012,04,21,02,41,5.00
2012,04,21,02,42,5.00
2012,04,21,02,43,5.00
2012,04,21,02,44,5.00
2012,04,21,02,45,5.00
2012,04,21,02,46,5.00
2012,04,21,02,47,5.00
2012,04,21,02,48,4.90
2012,04,21,02,49,4.90
2012,04,21,02,50,4.90
2012,04,21,02,51,4.90
2012,04,21,02,52,4.90
2012,04,21,02,53,4.90
2012,04,21,02,54,4.90
2012,04,21,02,55,4.90
2012,04,21,02,56,4.90
2012,04,21,02,57,4.90
2012,04,21,02,58,4.90
2012,04,21,02,59,4.90
2012,04,21,03,00,4.90
2012,04,21,03,01,4.90
2012,04,21,03,02,4.90
2012,04,21,03,06,4.90
2012,04,21,03,07,4.90
2012,04,21,03,08,4.90
2012,04,21,03,09,4.90
2012,04,21,03,10,4.90
2012,04,21,03,11,4.90
2012,04,21,03,12,4.90
2012,04,21,03,13,4.90
2012,04,21,03,14,4.90
2012,04,21,03,15,4.90
2012,04,21,03,16,4.80
2012,04,21,03,17,4.80
2012,04,21,03,18,4.80
2012,04,21,03,19,4.80
2012,04,21,03,20,4.80
2012,04,21,03,21,4.80
2012,04,21,03,22,4.80
2012,04,21,03,23,4.80
2012,04,21,03,24,4.80
2012,04,21,03,25,4.80
2012,04,21,03,26,4.80
2012,04,21,03,27,4.80
2012,04,21,03,28,4.80
2012,04,21,03,29,4.80
2012,04,21,03,30,4.80
2012,04,21,03,31,4.80
2012,04,21,03,32,4.80
2012,04,21,03,33,4.80
2012,04,21,03,34,4.80
2012,04,21,03,35,4.80
2012,04,21,03,36,4.80
2012,04,21,03,37,4.80
2012,04,21,03,38,4.80
2012,04,21,03,39,4.80
2012,04,21,03,40,4.80
2012,04,21,03,41,4.80
2012,04,21,03,42,4.80
2012,04,21,03,43,4.80
2012,04,21,03,44,4.80
2012,04,21,03,45,4.70
2012,04,21,03,46,4.70
2012,04,21,03,47,4.70
2012,04,21,03,48,4.70
2012,04,21,03,49,4.70
2012,04,21,03,50,4.70
2012,04,21,03,51,4.70
2012,04,21,03,52,4.60
2012,04,21,03,53,4.60
2012,04,21,03,54,4.60
2012,04,21,03,55,4.60
2012,04,21,03,56,4.60
2012,04,21,03,57,4.60
2012,04,21,03,58,4.50
2012,04,21,03,59,4.50
2012,04,21,04,00,4.50
2012,04,21,04,01,4.50
2012,04,21,04,02,4.50
2012,04,21,04,03,4.50
2012,04,21,04,04,4.50
2012,04,21,04,05,4.50
2012,04,21,04,06,4.50
2012,04,21,04,07,4.60
2012,04,21,04,08,4.60
2012,04,21,04,09,4.60
2012,04,21,04,10,4.60
2012,04,21,04,11,4.60
2012,04,21,04,12,4.60
2012,04,21,04,13,4.60
2012,04,21,04,14,4.60
2012,04,21,04,15,4.60
2012,04,21,04,16,4.60
2012,04,21,04,17,4.60
2012,04,21,04,18,4.60
2012,04,21,04,19,4.60
2012,04,21,04,20,4.60
2012,04,21,04,21,4.50
2012,04,21,04,22,4.50
2012,04,21,04,23,4.50
2012,04,21,04,24,4.50
2012,04,21,04,25,4.40
2012,04,21,04,26,4.40
2012,04,21,04,27,4.40
2012,04,21,04,28,4.40
2012,04,21,04,29,4.40
2012,04,21,04,30,4.40
2012,04,21,04,31,4.40
2012,04,21,04,32,4.40
2012,04,21,04,33,4.40
2012,04,21,04,34,4.40
2012,04,21,04,35,4.40
2012,04,21,04,36,4.40
2012,04,21,04,37,4.40
2012,04,21,04,38,4.40
2012,04,21,04,39,4.40
2012,04,21,04,40,4.50
2012,04,21,04,41,4.50
2012,04,21,04,42,4.60
2012,04,21,04,43,4.60
2012,04,21,04,44,4.70
2012,04,21,04,45,4.70
2012,04,21,04,46,4.80
2012,04,21,04,47,4.80
2012,04,21,04,48,4.80
2012,04,21,04,49,4.80
2012,04,21,04,50,4.80
2012,04,21,04,51,4.80
2012,04,21,04,52,4.80
2012,04,21,04,53,4.90
2012,04,21,04,54,4.90
2012,04,21,04,55,4.90
2012,04,21,04,56,4.90
2012,04,21,04,57,5.00
2012,04,21,04,58,5.00
2012,04,21,04,59,5.10
2012,04,21,05,00,5.10
2012,04,21,05,01,5.10
2012,04,21,05,02,5.10
2012,04,21,05,03,5.10
2012,04,21,05,04,5.10
2012,04,21,05,05,5.10
2012,04,21,05,06,5.10
2012,04,21,05,07,5.10
2012,04,21,05,08,5.10
2012,04,21,05,09,5.10
2012,04,21,05,10,5.10
2012,04,21,05,11,5.10
2012,04,21,05,12,5.20
2012,04,21,05,13,5.20
2012,04,21,05,14,5.20
2012,04,21,05,15,5.20
2012,04,21,05,16,5.20
2012,04,21,05,17,5.20
2012,04,21,05,18,5.10
2012,04,21,05,19,5.10
2012,04,21,05,20,5.20
2012,04,21,05,21,5.20
2012,04,21,05,22,5.20
2012,04,21,05,23,5.20
2012,04,21,05,24,5.20
2012,04,21,05,25,5.20
2012,04,21,05,26,5.20
2012,04,21,05,27,5.20
2012,04,21,05,28,5.20
2012,04,21,05,29,5.20
2012,04,21,05,30,5.20
2012,04,21,05,31,5.20
2012,04,21,05,32,5.20
2012,04,21,05,33,5.20
2012,04,21,05,34,5.20
2012,04,21,05,35,5.20
2012,04,21,05,36,5.20
2012,04,21,05,37,5.20
2012,04,21,05,38,5.20
2012,04,21,05,39,5.20
2012,04,21,05,40,5.20
2012,04,21,05,41,5.20
2012,04,21,05,42,5.20
2012,04,21,05,43,5.20
2012,04,21,05,44,5.20
2012,04,21,05,45,5.20
2012,04,21,05,46,5.20
2012,04,21,05,47,5.20
2012,04,21,05,48,5.20
2012,04,21,05,49,5.20
2012,04,21,05,50,5.20
2012,04,21,05,51,5.20
2012,04,21,05,52,5.20
2012,04,21,05,53,5.20
2012,04,21,05,54,5.10
2012,04,21,05,55,5.10
2012,04,21,05,56,5.10
2012,04,21,05,57,5.10
2012,04,21,05,58,5.20
2012,04,21,05,59,5.20
2012,04,21,06,00,5.20
2012,04,21,06,01,5.20
2012,04,21,06,02,5.20
2012,04,21,06,03,5.20
2012,04,21,06,04,5.20
2012,04,21,06,05,5.20
2012,04,21,06,06,5.20
2012,04,21,06,07,5.20
2012,04,21,06,08,5.20
2012,04,21,06,09,5.20
2012,04,21,06,10,5.20
2012,04,21,06,11,5.20
2012,04,21,06,12,5.20
2012,04,21,06,13,5.20
2012,04,21,06,14,5.20
2012,04,21,06,15,5.20
2012,04,21,06,16,5.20
2012,04,21,06,17,5.20
2012,04,21,06,18,5.30
2012,04,21,06,19,5.30
2012,04,21,06,20,5.30
2012,04,21,06,21,5.30
2012,04,21,06,22,5.30
2012,04,21,06,23,5.30
2012,04,21,06,24,5.30
2012,04,21,06,25,5.30
2012,04,21,06,26,5.30
2012,04,21,06,27,5.30
2012,04,21,06,28,5.30
2012,04,21,06,29,5.30
2012,04,21,06,30,5.30
2012,04,21,06,31,5.30
2012,04,21,06,32,5.30
2012,04,21,06,33,5.30
2012,04,21,06,34,5.30
2012,04,21,06,35,5.30
2012,04,21,06,36,5.20
2012,04,21,06,37,5.20
2012,04,21,06,38,5.20
2012,04,21,06,39,5.20
2012,04,21,06,40,5.20
2012,04,21,06,41,5.20
2012,04,21,06,42,5.20
2012,04,21,06,43,5.20
2012,04,21,06,44,5.30
2012,04,21,06,45,5.30
2012,04,21,06,46,5.30
2012,04,21,06,47,5.30
2012,04,21,06,48,5.30
2012,04,21,06,49,5.30
2012,04,21,06,50,5.30
2012,04,21,06,51,5.30
2012,04,21,06,52,5.30
2012,04,21,06,53,5.30
2012,04,21,06,54,5.30
2012,04,21,06,55,5.30
2012,04,21,06,56,5.30
2012,04,21,06,57,5.40
2012,04,21,06,58,5.40
2012,04,21,06,59,5.40
2012,04,21,07,00,5.40
2012,04,21,07,01,5.40
2012,04,21,07,02,5.40
2012,04,21,07,03,5.40
2012,04,21,07,04,5.40
2012,04,21,07,05,5.50
2012,04,21,07,06,5.50
2012,04,21,07,07,5.50
2012,04,21,07,08,5.60
2012,04,21,07,09,5.60
2012,04,21,07,10,5.60
2012,04,21,07,11,5.60
2012,04,21,07,12,5.60
2012,04,21,07,13,5.60
2012,04,21,07,14,5.60
2012,04,21,07,15,5.70
2012,04,21,07,16,5.70
2012,04,21,07,17,5.70
2012,04,21,07,18,5.70
2012,04,21,07,19,5.70
2012,04,21,07,20,5.70
2012,04,21,07,21,5.70
2012,04,21,07,22,5.70
2012,04,21,07,23,5.70
2012,04,21,07,24,5.70
2012,04,21,07,25,5.70
2012,04,21,07,26,5.80
2012,04,21,07,27,5.80
2012,04,21,07,28,5.80
2012,04,21,07,29,5.80
2012,04,21,07,30,5.80
2012,04,21,07,31,5.80
2012,04,21,07,32,5.80
2012,04,21,07,33,5.80
2012,04,21,07,34,5.80
2012,04,21,07,35,5.80
2012,04,21,07,36,5.80
2012,04,21,07,37,5.80
2012,04,21,07,38,5.80
2012,04,21,07,39,5.80
2012,04,21,07,40,5.80
2012,04,21,07,41,5.80
2012,04,21,07,42,5.80
2012,04,21,07,43,5.80
2012,04,21,07,44,5.90
2012,04,21,07,45,5.90
2012,04,21,07,46,5.90
2012,04,21,07,47,5.90
2012,04,21,07,48,6.00
2012,04,21,07,49,6.00
2012,04,21,07,50,6.10
2012,04,21,07,51,6.20
2012,04,21,07,52,6.20
2012,04,21,07,53,6.30
2012,04,21,07,54,6.30
2012,04,21,07,55,6.30
2012,04,21,07,56,6.30
2012,04,21,07,57,6.40
2012,04,21,07,58,6.40
2012,04,21,07,59,6.50
2012,04,21,08,00,6.50
2012,04,21,08,01,6.60
2012,04,21,08,02,6.70
2012,04,21,08,03,6.80
2012,04,21,08,04,6.80
2012,04,21,08,05,6.80
2012,04,21,08,06,6.90
2012,04,21,08,07,7.00
2012,04,21,08,08,7.00
2012,04,21,08,09,7.10
2012,04,21,08,10,7.10
2012,04,21,08,11,7.20
2012,04,21,08,12,7.20
2012,04,21,08,13,7.20
2012,04,21,08,14,7.20
2012,04,21,08,15,7.30
2012,04,21,08,16,7.30
2012,04,21,08,17,7.40
2012,04,21,08,18,7.40
2012,04,21,08,19,7.40
2012,04,21,08,20,7.40
2012,04,21,08,21,7.50
2012,04,21,08,22,7.50
2012,04,21,08,23,7.60
2012,04,21,08,24,7.60
2012,04,21,08,25,7.70
2012,04,21,08,26,7.70
2012,04,21,08,27,7.80
2012,04,21,08,28,7.90
2012,04,21,08,29,7.90
2012,04,21,08,30,7.90
2012,04,21,08,31,8.00
2012,04,21,08,32,8.00
2012,04,21,08,33,8.00
2012,04,21,08,34,8.00
2012,04,21,08,35,8.00
2012,04,21,08,36,8.10
2012,04,21,08,37,8.10
2012,04,21,08,38,8.10
2012,04,21,08,39,8.10
2012,04,21,08,40,8.10
2012,04,21,08,41,8.10
2012,04,21,08,42,8.10
2012,04,21,08,43,8.10
2012,04,21,08,44,8.10
2012,04,21,08,45,8.20
2012,04,21,08,46,8.20
2012,04,21,08,47,8.20
2012,04,21,08,48,8.30
2012,04,21,08,49,8.30
2012,04,21,08,50,8.30
2012,04,21,08,51,8.30
2012,04,21,08,52,8.30
2012,04,21,08,53,8.30
2012,04,21,08,54,8.30
2012,04,21,08,55,8.30
2012,04,21,08,56,8.30
2012,04,21,08,57,8.30
2012,04,21,08,58,8.30
2012,04,21,08,59,8.30
2012,04,21,09,00,8.30
2012,04,21,09,01,8.30
2012,04,21,09,02,8.30
2012,04,21,09,03,8.30
2012,04,21,09,04,8.30
2012,04,21,09,05,8.30
2012,04,21,09,06,8.30
2012,04,21,09,07,8.30
2012,04,21,09,08,8.40
2012,04,21,09,09,8.40
2012,04,21,09,10,8.40
2012,04,21,09,11,8.40
2012,04,21,09,12,8.50
2012,04,21,09,13,8.50
2012,04,21,09,14,8.50
2012,04,21,09,15,8.50
2012,04,21,09,16,8.60
2012,04,21,09,17,8.60
2012,04,21,09,18,8.60
2012,04,21,09,19,8.60
2012,04,21,09,20,8.60
2012,04,21,09,21,8.70
2012,04,21,09,22,8.70
2012,04,21,09,23,8.70
2012,04,21,09,24,8.80
2012,04,21,09,25,8.80
2012,04,21,09,26,8.80
2012,04,21,09,27,8.80
2012,04,21,09,28,8.80
2012,04,21,09,29,8.80
2012,04,21,09,30,8.80
2012,04,21,09,31,8.80
2012,04,21,09,32,8.80
2012,04,21,09,33,8.80
2012,04,21,09,34,8.80
2012,04,21,09,35,8.80
2012,04,21,09,36,8.80
2012,04,21,09,37,8.80
2012,04,21,09,38,8.80
2012,04,21,09,39,8.80
2012,04,21,09,40,8.80
2012,04,21,09,41,8.80
2012,04,21,09,42,8.90
2012,04,21,09,43,8.90
2012,04,21,09,44,9.00
2012,04,21,09,45,9.00
2012,04,21,09,46,9.10
2012,04,21,09,47,9.10
2012,04,21,09,48,9.20
2012,04,21,09,49,9.20
2012,04,21,09,50,9.20
2012,04,21,09,51,9.20
2012,04,21,09,52,9.10
2012,04,21,09,53,9.10
2012,04,21,09,54,9.10
2012,04,21,09,55,9.10
2012,04,21,09,56,9.10
2012,04,21,09,57,9.10
2012,04,21,09,58,9.20
2012,04,21,09,59,9.20
2012,04,21,10,00,9.10
2012,04,21,10,01,9.10
2012,04,21,10,02,9.10
2012,04,21,10,03,9.10
2012,04,21,10,04,9.10
2012,04,21,10,05,9.10
2012,04,21,10,06,9.10
2012,04,21,10,07,9.10
2012,04,21,10,08,9.10
2012,04,21,10,09,9.10
2012,04,21,10,10,9.20
2012,04,21,10,11,9.20
2012,04,21,10,12,9.20
2012,04,21,10,13,9.30
2012,04,21,10,14,9.30
2012,04,21,10,15,9.30
2012,04,21,10,16,9.30
2012,04,21,10,17,9.30
2012,04,21,10,18,9.30
2012,04,21,10,19,9.30
2012,04,21,10,20,9.30
2012,04,21,10,21,9.30
2012,04,21,10,22,9.30
2012,04,21,10,23,9.30
2012,04,21,10,24,9.30
2012,04,21,10,25,9.30
2012,04,21,10,26,9.30
2012,04,21,10,27,9.40
2012,04,21,10,28,9.40
2012,04,21,10,29,9.50
2012,04,21,10,30,9.50
2012,04,21,10,31,9.60
2012,04,21,10,32,9.60
2012,04,21,10,33,9.60
2012,04,21,10,34,9.70
2012,04,21,10,35,9.70
2012,04,21,10,36,9.80
2012,04,21,10,37,9.80
2012,04,21,10,38,9.80
2012,04,21,10,39,9.90
2012,04,21,10,40,9.90
2012,04,21,10,41,9.90
2012,04,21,10,42,9.90
2012,04,21,10,43,9.90
2012,04,21,10,44,10.00
2012,04,21,10,45,10.00
2012,04,21,10,46,10.00
2012,04,21,10,47,10.00
2012,04,21,10,48,9.90
2012,04,21,10,49,9.90
2012,04,21,10,50,9.90
2012,04,21,10,51,9.90
2012,04,21,10,52,9.90
2012,04,21,10,53,9.80
2012,04,21,10,54,9.80
2012,04,21,10,55,9.90
2012,04,21,10,56,9.80
2012,04,21,10,57,9.90
2012,04,21,10,58,9.90
2012,04,21,10,59,9.90
2012,04,21,11,00,9.90
2012,04,21,11,01,9.90
2012,04,21,11,02,9.90
2012,04,21,11,03,9.90
2012,04,21,11,04,9.90
2012,04,21,11,05,10.00
2012,04,21,11,06,10.10
2012,04,21,11,07,10.20
2012,04,21,11,08,10.20
2012,04,21,11,09,10.20
2012,04,21,11,10,10.10
2012,04,21,11,11,10.20
2012,04,21,11,12,10.20
2012,04,21,11,13,10.20
2012,04,21,11,14,10.20
2012,04,21,11,15,10.30
2012,04,21,11,16,10.30
2012,04,21,11,17,10.30
2012,04,21,11,18,10.30
2012,04,21,11,19,10.40
2012,04,21,11,20,10.40
2012,04,21,11,21,10.50
2012,04,21,11,22,10.50
2012,04,21,11,23,10.50
2012,04,21,11,24,10.50
2012,04,21,11,25,10.60
2012,04,21,11,26,10.60
2012,04,21,11,27,10.60
2012,04,21,11,28,10.70
2012,04,21,11,29,10.60
2012,04,21,11,30,10.60
2012,04,21,11,31,10.50
2012,04,21,11,32,10.50
2012,04,21,11,33,10.50
2012,04,21,11,34,10.50
2012,04,21,11,35,10.50
2012,04,21,11,36,10.60
2012,04,21,11,37,10.60
2012,04,21,11,38,10.60
2012,04,21,11,39,10.70
2012,04,21,11,40,10.70
2012,04,21,11,41,10.70
2012,04,21,11,42,10.70
2012,04,21,11,43,10.80
2012,04,21,11,44,10.80
2012,04,21,11,45,10.80
2012,04,21,11,46,10.80
2012,04,21,11,47,10.90
2012,04,21,11,48,10.90
2012,04,21,11,49,10.90
2012,04,21,11,50,10.90
2012,04,21,11,51,10.90
2012,04,21,11,52,10.90
2012,04,21,11,53,11.00
2012,04,21,11,54,11.10
2012,04,21,11,55,11.20
2012,04,21,11,56,11.40
2012,04,21,11,57,11.50
2012,04,21,11,58,11.60
2012,04,21,11,59,11.70
2012,04,21,12,00,11.70
2012,04,21,12,01,11.80
2012,04,21,12,02,11.90
2012,04,21,12,03,11.90
2012,04,21,12,04,12.00
2012,04,21,12,05,12.00
2012,04,21,12,06,11.90
2012,04,21,12,07,11.90
2012,04,21,12,08,11.90
2012,04,21,12,09,11.90
2012,04,21,12,10,11.90
2012,04,21,12,11,11.90
2012,04,21,12,12,11.80
2012,04,21,12,13,11.80
2012,04,21,12,14,11.80
2012,04,21,12,15,11.70
2012,04,21,12,16,11.60
2012,04,21,12,17,11.60
2012,04,21,12,18,11.60
2012,04,21,12,19,11.60
2012,04,21,12,20,11.70
2012,04,21,12,21,11.80
2012,04,21,12,22,11.80
2012,04,21,12,23,11.90
2012,04,21,12,24,11.90
2012,04,21,12,25,12.00
2012,04,21,12,26,12.20
2012,04,21,12,27,12.30
2012,04,21,12,28,12.40
2012,04,21,12,29,12.40
2012,04,21,12,30,12.30
2012,04,21,12,31,12.40
2012,04,21,12,32,12.40
2012,04,21,12,33,12.50
2012,04,21,12,34,12.50
2012,04,21,12,35,12.50
2012,04,21,12,36,12.50
2012,04,21,12,37,12.60
2012,04,21,12,38,12.60
2012,04,21,12,39,12.50
2012,04,21,12,40,12.50
2012,04,21,12,41,12.40
2012,04,21,12,42,12.30
2012,04,21,12,43,12.20
2012,04,21,12,44,12.20
2012,04,21,12,45,12.20
2012,04,21,12,46,12.10
2012,04,21,12,47,12.00
2012,04,21,12,48,12.00
2012,04,21,12,49,12.00
2012,04,21,12,50,12.00
2012,04,21,12,51,12.10
2012,04,21,12,52,12.10
2012,04,21,12,53,12.10
2012,04,21,12,54,12.20
2012,04,21,12,55,12.20
2012,04,21,12,56,12.20
2012,04,21,12,57,12.20
2012,04,21,12,58,12.20
2012,04,21,12,59,12.10
2012,04,21,13,00,12.20
2012,04,21,13,01,12.20
2012,04,21,13,02,12.30
2012,04,21,13,03,12.40
2012,04,21,13,04,12.40
2012,04,21,13,05,12.30
2012,04,21,13,06,12.30
2012,04,21,13,07,12.30
2012,04,21,13,08,12.40
2012,04,21,13,09,12.50
2012,04,21,13,10,12.60
2012,04,21,13,11,12.70
2012,04,21,13,12,12.70
2012,04,21,13,13,12.70
2012,04,21,13,14,12.70
2012,04,21,13,15,12.70
2012,04,21,13,16,12.70
2012,04,21,13,17,12.60
2012,04,21,13,18,12.50
2012,04,21,13,19,12.40
2012,04,21,13,20,12.40
2012,04,21,13,21,12.30
2012,04,21,13,22,12.30
2012,04,21,13,23,12.40
2012,04,21,13,24,12.40
2012,04,21,13,25,12.50
2012,04,21,13,26,12.50
2012,04,21,13,27,12.50
2012,04,21,13,28,12.50
2012,04,21,13,29,12.50
2012,04,21,13,30,12.50
2012,04,21,13,31,12.70
2012,04,21,13,32,12.80
2012,04,21,13,33,12.90
2012,04,21,13,34,12.90
2012,04,21,13,35,12.90
2012,04,21,13,36,12.90
2012,04,21,13,37,13.00
2012,04,21,13,38,13.20
2012,04,21,13,39,13.30
2012,04,21,13,40,13.50
2012,04,21,13,41,13.50
2012,04,21,13,42,13.70
2012,04,21,13,43,13.80
2012,04,21,13,44,13.80
2012,04,21,13,45,13.80
2012,04,21,13,46,13.70
2012,04,21,13,47,13.60
2012,04,21,13,48,13.60
2012,04,21,13,49,13.60
2012,04,21,13,50,13.70
2012,04,21,13,51,13.70
2012,04,21,13,52,13.70
2012,04,21,13,53,13.80
2012,04,21,13,54,13.70
2012,04,21,13,55,13.70
2012,04,21,13,56,13.70
2012,04,21,13,57,13.60
2012,04,21,13,58,13.40
2012,04,21,13,59,13.30
2012,04,21,14,00,13.30
2012,04,21,14,01,13.20
2012,04,21,14,02,13.20
2012,04,21,14,03,13.20
2012,04,21,14,04,13.20
2012,04,21,14,05,13.20
2012,04,21,14,06,13.20
2012,04,21,14,07,13.20
2012,04,21,14,08,13.30
2012,04,21,14,09,13.20
2012,04,21,14,10,13.20
2012,04,21,14,11,13.10
2012,04,21,14,12,13.10
2012,04,21,14,13,13.10
2012,04,21,14,14,13.00
2012,04,21,14,15,13.00
2012,04,21,14,16,13.10
2012,04,21,14,17,13.20
2012,04,21,14,18,13.20
2012,04,21,14,19,13.20
2012,04,21,14,20,13.30
2012,04,21,14,21,13.30
2012,04,21,14,22,13.40
2012,04,21,14,23,13.50
2012,04,21,14,24,13.60
2012,04,21,14,25,13.60
2012,04,21,14,26,13.60
2012,04,21,14,27,13.60
2012,04,21,14,28,13.60
2012,04,21,14,29,13.50
2012,04,21,14,30,13.60
2012,04,21,14,31,13.60
2012,04,21,14,32,13.60
2012,04,21,14,33,13.70
2012,04,21,14,34,13.70
2012,04,21,14,35,13.80
2012,04,21,14,36,13.80
2012,04,21,14,37,13.80
2012,04,21,14,38,13.80
2012,04,21,14,39,13.90
2012,04,21,14,40,13.90
2012,04,21,14,41,13.90
2012,04,21,14,42,13.90
2012,04,21,14,43,13.80
2012,04,21,14,44,13.80
2012,04,21,14,45,13.90
2012,04,21,14,46,13.90
2012,04,21,14,47,13.90
2012,04,21,14,48,14.00
2012,04,21,14,49,14.00
2012,04,21,14,50,14.00
2012,04,21,14,51,14.00
2012,04,21,14,52,14.00
2012,04,21,14,53,14.10
2012,04,21,14,54,14.10
2012,04,21,14,55,14.10
2012,04,21,14,56,14.10
2012,04,21,14,57,14.10
2012,04,21,14,58,14.10
2012,04,21,14,59,14.10
2012,04,21,15,00,14.10
2012,04,21,15,01,14.10
2012,04,21,15,02,14.10
2012,04,21,15,03,14.10
2012,04,21,15,04,14.10
2012,04,21,15,05,14.20
2012,04,21,15,06,14.20
2012,04,21,15,07,14.20
2012,04,21,15,08,14.30
2012,04,21,15,09,14.30
2012,04,21,15,10,14.30
2012,04,21,15,11,14.30
2012,04,21,15,12,14.30
2012,04,21,15,13,14.20
2012,04,21,15,14,14.20
2012,04,21,15,15,14.10
2012,04,21,15,16,14.10
2012,04,21,15,17,14.10
2012,04,21,15,18,14.20
2012,04,21,15,19,14.20
2012,04,21,15,20,14.20
2012,04,21,15,21,14.20
2012,04,21,15,22,14.30
2012,04,21,15,23,14.30
2012,04,21,15,24,14.30
2012,04,21,15,25,14.30
2012,04,21,15,26,14.30
2012,04,21,15,27,14.30
2012,04,21,15,28,14.30
2012,04,21,15,29,14.40
2012,04,21,15,30,14.50
2012,04,21,15,31,14.50
2012,04,21,15,32,14.60
2012,04,21,15,33,14.60
2012,04,21,15,34,14.60
2012,04,21,15,35,14.60
2012,04,21,15,36,14.70
2012,04,21,15,37,14.70
2012,04,21,15,38,14.70
2012,04,21,15,39,14.70
2012,04,21,15,40,14.70
2012,04,21,15,41,14.70
2012,04,21,15,42,14.80
2012,04,21,15,43,14.70
2012,04,21,15,44,14.70
2012,04,21,15,45,14.60
2012,04,21,15,46,14.60
2012,04,21,15,47,14.60
2012,04,21,15,48,14.60
2012,04,21,15,49,14.60
2012,04,21,15,50,14.70
2012,04,21,15,51,14.70
2012,04,21,15,52,14.80
2012,04,21,15,53,14.80
2012,04,21,15,54,14.80
2012,04,21,15,55,14.80
2012,04,21,15,56,14.90
2012,04,21,15,57,14.90
2012,04,21,15,58,14.90
2012,04,21,15,59,14.90
2012,04,21,16,00,15.00
2012,04,21,16,01,15.00
2012,04,21,16,02,15.00
2012,04,21,16,03,15.00
2012,04,21,16,04,14.90
2012,04,21,16,05,14.90
2012,04,21,16,06,14.80
2012,04,21,16,07,14.60
2012,04,21,16,08,14.50
2012,04,21,16,09,14.40
2012,04,21,16,10,14.40
2012,04,21,16,11,14.30
2012,04,21,16,12,14.30
2012,04,21,16,13,14.30
2012,04,21,16,14,14.30
2012,04,21,16,15,14.30
2012,04,21,16,16,14.30
2012,04,21,16,17,14.40
2012,04,21,16,18,14.40
2012,04,21,16,19,14.50
2012,04,21,16,20,14.60
2012,04,21,16,21,14.70
2012,04,21,16,22,14.90
2012,04,21,16,23,15.00
2012,04,21,16,24,15.00
2012,04,21,16,25,15.10
2012,04,21,16,26,15.20
2012,04,21,16,27,15.30
2012,04,21,16,28,15.40
2012,04,21,16,29,15.50
2012,04,21,16,30,15.50
2012,04,21,16,31,15.50
2012,04,21,16,32,15.40
2012,04,21,16,33,15.40
2012,04,21,16,34,15.30
2012,04,21,16,35,15.20
2012,04,21,16,36,15.10
2012,04,21,16,37,15.00
2012,04,21,16,38,15.00
2012,04,21,16,39,15.00
2012,04,21,16,40,15.00
2012,04,21,16,41,15.00
2012,04,21,16,42,15.00
2012,04,21,16,43,15.00
2012,04,21,16,44,15.00
2012,04,21,16,45,15.10
2012,04,21,16,46,15.20
2012,04,21,16,47,15.20
2012,04,21,16,48,15.30
2012,04,21,16,49,15.30
2012,04,21,16,50,15.30
2012,04,21,16,51,15.30
2012,04,21,16,52,15.20
2012,04,21,16,53,15.20
2012,04,21,16,54,15.10
2012,04,21,16,55,15.00
2012,04,21,16,56,15.00
2012,04,21,16,57,14.90
2012,04,21,16,58,14.70
2012,04,21,16,59,14.60
2012,04,21,17,00,14.50
2012,04,21,17,01,14.40
2012,04,21,17,02,14.30
2012,04,21,17,03,14.30
2012,04,21,17,04,14.20
2012,04,21,17,05,14.20
2012,04,21,17,06,14.20
2012,04,21,17,07,14.20
2012,04,21,17,08,14.20
2012,04,21,17,09,14.20
2012,04,21,17,10,14.10
2012,04,21,17,11,14.10
2012,04,21,17,12,14.00
2012,04,21,17,13,14.10
2012,04,21,17,14,14.10
2012,04,21,17,15,14.10
2012,04,21,17,16,14.10
2012,04,21,17,17,14.00
2012,04,21,17,18,14.00
2012,04,21,17,19,13.90
2012,04,21,17,20,13.90
2012,04,21,17,21,13.80
2012,04,21,17,22,13.80
2012,04,21,17,23,13.80
2012,04,21,17,24,13.80
2012,04,21,17,25,13.80
2012,04,21,17,26,13.70
2012,04,21,17,27,13.70
2012,04,21,17,28,13.60
2012,04,21,17,29,13.60
2012,04,21,17,30,13.50
2012,04,21,17,31,13.40
2012,04,21,17,32,13.40
2012,04,21,17,33,13.30
2012,04,21,17,34,13.30
2012,04,21,17,35,13.30
2012,04,21,17,36,13.30
2012,04,21,17,37,13.30
2012,04,21,17,38,13.30
2012,04,21,17,39,13.30
2012,04,21,17,40,13.30
2012,04,21,17,41,13.20
2012,04,21,17,42,13.10
2012,04,21,17,43,13.00
2012,04,21,17,44,12.90
2012,04,21,17,45,12.80
2012,04,21,17,46,12.80
2012,04,21,17,47,12.70
2012,04,21,17,48,12.70
2012,04,21,17,49,12.70
2012,04,21,17,50,12.70
2012,04,21,17,51,12.70